This is the latest recevied weather packets stored in our database for station/object KB9MLJ. If no packets are shown the sender has not sent any weather packets the latest 10 day(s).
| Time | Temp. | Humidity | Pressure | Rain* | Wind** | Luminosity | Snow |
|---|---|---|---|---|---|---|---|
| 1777498533 | 13.89° C | 48% | 1013.7 hPa | 0 mm | - | 464 W/m² | - |
| 1777498229 | 13.89° C | 50% | 1013.7 hPa | 0 mm | - | 263 W/m² | - |
| 1777497928 | 13.89° C | 53% | 1013.3 hPa | 0 mm | - | 317 W/m² | - |
| 1777497623 | 13.89° C | 55% | 1013.7 hPa | 0 mm | - | 337 W/m² | - |
| 1777497320 | 13.89° C | 55% | 1013.7 hPa | 0 mm | - | 310 W/m² | - |
| 1777497016 | 13.89° C | 56% | 1013.7 hPa | 0 mm | - | 127 W/m² | - |
| 1777496713 | 13.89° C | 55% | 1013.3 hPa | 0 mm | - | 168 W/m² | - |
| 1777496410 | 13.89° C | 53% | 1013.3 hPa | 0 mm | - | 577 W/m² | - |
| 1777496106 | 13.89° C | 52% | 1013.7 hPa | 0 mm | - | 210 W/m² | - |
| 1777495802 | 14.44° C | 54% | 1013.7 hPa | 0 mm | - | 211 W/m² | - |
| 1777495498 | 15° C | 52% | 1013.7 hPa | 0 mm | - | 705 W/m² | - |
| 1777495194 | 15° C | 56% | 1013.7 hPa | 0 mm | - | 362 W/m² | - |
| 1777494892 | 14.44° C | 55% | 1013.7 hPa | 0 mm | - | 317 W/m² | - |
| 1777494589 | 13.89° C | 60% | 1014 hPa | 0 mm | - | 285 W/m² | - |
| 1777494286 | 13.89° C | 59% | 1013.7 hPa | 0 mm | - | 224 W/m² | - |
| 1777493982 | 13.89° C | 59% | 1013.7 hPa | 0 mm | - | 180 W/m² | - |
| 1777493681 | 13.89° C | 57% | 1013.7 hPa | 0 mm | - | 211 W/m² | - |
| 1777493378 | 14.44° C | 57% | 1013.7 hPa | 0 mm | - | 192 W/m² | - |
| 1777493074 | 14.44° C | 58% | 1013.7 hPa | 0 mm | - | 233 W/m² | - |
| 1777492771 | 13.89° C | 57% | 1013.7 hPa | 0 mm | - | 303 W/m² | - |
| 1777492467 | 13.89° C | 58% | 1013.7 hPa | 0 mm | - | 213 W/m² | - |
| 1777492164 | 14.44° C | 58% | 1013.7 hPa | 0 mm | - | 225 W/m² | - |
| 1777491861 | 15° C | 57% | 1013.7 hPa | 0 mm | - | 424 W/m² | - |
| 1777491557 | 15° C | 58% | 1013.7 hPa | 0 mm | - | 824 W/m² | - |
| 1777491255 | 15° C | 58% | 1013.7 hPa | 0 mm | - | 732 W/m² | - |
* Rain latest hour (hover to see other rain measurements)
** Current wind speed in m/s (hover to see current wind gust speed)